#timestamp,LO_Frequency,Hit,StdDev 
1564167615.7,286047000.4,N
1564167635.6,286047000.2,N
1564167655.4,286047000.0,N
1564167675.2,286046999.8,N
1564167695.1,286046999.7,N
1564167696.0,286047011.9,Y
1564167715.8,286047000.4,P
1564167735.6,286047001.2,P
1564167755.5,286047000.9,N
1564167775.3,286047000.6,N
1564167795.2,286047000.4,N
1564167815.9,286047000.5,N
1564167835.7,286047000.6,N
1564167855.6,286047000.6,N
1564167875.4,286047000.8,N
1564167895.2,286047001.2,Y
1564167915.1,286046998.4,P
1564167916.0,286046998.4,N
1564167935.8,286046998.3,N
1564167955.7,286046998.2,N
1564167975.5,286046998.5,N
1564167995.3,286046998.3,N
1564168015.2,286046998.7,N
1564168035.0,286046998.8,N
1564168035.9,286046998.8,N
1564168055.7,286046999.3,N
1564168075.6,286046999.3,N
1564168095.4,286046999.3,N
1564168115.3,286046999.1,N
1564168135.1,286046996.9,Y
1564168155.8,286046998.1,P
1564168175.7,286046998.2,P
1564168195.5,286046998.4,P
1564168215.4,286046998.4,Y
1564168235.2,286047002.7,P
1564168255.0,286047002.7,N
1564168255.9,286047002.7,N
1564168275.8,286046999.9,N
1564168295.6,286047000.1,N
1564168315.4,286047002.4,N
1564168335.3,286047002.4,N
1564168355.1,286047002.6,N
1564168375.9,286046999.8,N
1564168395.7,286047002.5,N
1564168415.5,286047002.5,N
1564168435.4,286047002.6,N
1564168455.2,286047002.5,N
1564168475.0,286047002.0,N
1564168475.9,286047002.0,N
1564168495.8,286047002.1,N
1564168515.6,286047002.0,N
1564168535.5,286047002.5,N
1564168555.3,286047002.2,N
1564168575.1,286047001.6,N
1564168595.9,286047001.3,N
1564168615.7,286047001.3,N
1564168635.5,286047001.9,N
1564168655.4,286047001.4,N
1564168675.2,286047001.3,N
1564168695.1,286047001.5,N
1564168696.0,286047001.5,N
1564168715.8,286047003.4,Y
1564168735.6,286047001.8,P
1564168755.5,286047001.5,P
1564168775.3,286047002.5,P
1564168795.2,286047002.5,Y
1564168815.9,286047001.2,P
1564168835.7,286047001.1,P
1564168855.6,286046998.3,P
1564168875.4,286046998.6,N
1564168895.2,286047000.9,N
1564168915.1,286047001.0,N
1564168916.0,286047001.0,N
1564168935.8,286047000.7,N
1564168955.7,286047000.8,N
1564168975.5,286047000.0,N
1564168995.3,286047002.6,N
1564169015.2,286047000.3,N
1564169035.0,286047000.2,N
1564169035.9,286047000.2,N
1564169055.8,286047002.8,N
1564169075.6,286047002.4,N
1564169095.4,286047002.6,N
1564169115.3,286046999.7,N
1564169135.1,286047002.1,N
1564169155.8,286047002.0,N
1564169175.7,286047001.4,N
1564169195.5,286047004.3,Y
1564169215.4,286046999.7,P
1564169235.2,286046999.8,N
1564169255.0,286047000.2,N
1564169255.9,286047000.2,N
1564169275.8,286047000.0,N
1564169295.6,286046999.7,N
1564169315.5,286047000.2,N
1564169335.3,286047000.0,N
1564169355.1,286047001.1,N
1564169375.9,286047000.5,N
1564169395.7,286047000.4,N
1564169415.5,286047000.4,N
1564169435.4,286047000.9,N
1564169455.2,286047001.0,N
1564169475.1,286046999.9,N
1564169476.0,286046999.9,N
1564169495.8,286047000.0,N
1564169515.6,286047000.2,N
1564169535.5,286046999.9,N
1564169555.3,286047000.3,N
1564169575.1,286046999.8,N
1564169595.9,286046999.8,N
1564169615.7,286046999.7,N
1564169635.6,286047002.3,Y
1564169655.4,286046999.9,P
1564169675.2,286047000.0,N
1564169695.1,286047000.3,N
1564169696.0,286047000.3,N
1564169715.8,286047002.5,Y
1564169735.7,286047002.1,P
1564169755.5,286046999.7,N
1564169775.3,286046999.8,N
1564169795.2,286046999.7,N
1564169815.0,286047002.2,N
1564169815.9,286047002.2,N
1564169835.7,286047002.7,N
1564169855.6,286047002.8,N
1564169875.4,286047000.2,N
1564169895.3,286047000.1,N
1564169915.1,286047002.5,N
1564169916.0,286047002.5,N
1564169935.8,286046999.8,N
1564169955.7,286047002.3,N
1564169975.5,286047002.4,N
1564169995.3,286047002.5,N
1564170015.2,286047002.8,N
1564170035.0,286047002.8,N
1564170035.9,286047002.8,N
1564170055.8,286047001.6,N
1564170075.6,286047001.7,N
1564170095.4,286047002.6,N
1564170115.3,286046999.7,N
1564170135.1,286047002.6,N
1564170155.8,286047002.4,N
1564170175.7,286047001.3,N
1564170195.5,286047001.3,N
1564170215.4,286047002.5,N
1564170235.2,286047001.4,N
1564170255.0,286047004.3,Y
1564170255.9,286047004.3,P
1564170275.8,286047002.6,N
1564170295.6,286047002.6,N
1564170315.5,286047002.2,N
1564170335.3,286047002.1,N
1564170355.1,286047002.1,N
1564170375.9,286047002.0,N
1564170395.7,286047001.8,N
1564170415.5,286047002.2,N
1564170435.4,286047002.7,Y
1564170455.2,286046999.3,P
1564170475.1,286046998.5,N
1564170476.0,286046998.5,N
1564170495.8,286046998.9,N
1564170515.6,286046999.2,N
1564170535.5,286046999.3,N
1564170555.3,286046999.0,N
1564170575.1,286046999.4,N
1564170595.9,286046999.1,N
1564170615.7,286046996.9,Y
1564170635.6,286046999.1,P
1564170655.4,286046999.0,P
1564170675.2,286047000.8,P
1564170695.1,286047002.3,Y
1564170696.0,286047002.3,P
1564170715.8,286047004.4,P
1564170735.6,286047004.3,N
1564170755.5,286047001.8,N
1564170775.3,286047004.3,N
1564170795.2,286047002.1,N
1564170815.9,286047002.3,N
1564170835.7,286047000.3,N
1564170855.6,286046998.1,N
1564170875.4,286046999.2,N
1564170895.2,286046997.1,N
1564170915.1,286046997.3,N
1564170916.0,286046997.3,N
1564170935.8,286046997.0,N
1564170955.7,286046994.9,N
1564170975.5,286046997.9,N
1564170995.3,286046997.6,N
1564171015.2,286046997.9,N
1564171035.0,286046996.7,N
1564171035.9,286046996.7,N
1564171055.7,286046997.1,N
1564171075.6,286046998.0,N
1564171095.4,286046997.5,N
1564171115.3,286046995.2,N
1564171135.1,286046996.0,N
1564171136.0,286046996.0,N
1564171155.8,286046994.0,N
1564171175.7,286046991.8,N
1564171195.5,286046994.0,N
